Location: A Canal
(35.2013°N, 76.7905°W)
Time: 19:42:04
(UTC+00:00)

Daily predictions for brighter satellites

Satellite Brightness Start Highest point End
(mag) Time Altitude Azimuth Time Altitude Azimuth Time Altitude Azimuth
Cosmos 2251 Rocket 4.1 22:49:27 10° N 22:54:21 36° ENE 22:59:13 10° SE
Cosmos 2221 4.2 22:55:09 10° NE 22:57:11 13° ENE 22:59:12 10° ESE
Envisat 3.0 22:53:28 10° SSE 22:58:31 74° ENE 23:03:35 10° N
Cosmos 1959 Rocket 4.5 22:53:12 10° S 22:59:18 69° E 23:05:22 10° NNE
Cosmos-2242 3.0 22:59:35 10° N 23:03:54 87° ENE 23:08:08 10° S
USA 102 4.2 23:04:38 10° SSW 23:06:03 42° W 23:11:37 10° NNW
Okean-O 2.6 23:03:59 10° SSE 23:08:23 76° ENE 23:12:49 10° N
OAO 3 Rocket 3.7 23:06:23 10° SW 23:10:49 45° SSE 23:14:58 12° E
Cosmos 1939 Rocket 4.0 23:08:15 10° ESE 23:11:14 21° ENE 23:14:15 10° NNE
Cosmos 2237 Rocket 3.7 23:07:15 10° NW 23:12:30 41° WSW 23:17:44 10° S
SKYMED 2 3.6 23:11:06 10° NNE 23:15:28 90° WNW 23:19:48 10° SSW
Cosmos 2366 rocket 4.1 23:11:19 10° S 23:17:32 87° W 23:23:51 10° N
STARLINK-67 2.7 23:19:49 10° SSW 23:22:15 47° SE 23:23:37 21° ENE
ATLAS 3B R/B 4.4 23:22:15 10° ESE 23:23:30 11° ESE 23:23:53 10° E
YAOGAN 6 2.8 23:19:58 10° S 23:23:38 74° W 23:27:17 10° NNW
YAOGAN 1 2.9 23:19:54 10° SE 23:23:59 43° ENE 23:28:05 10° N
Cosmos 2058 4.2 23:24:15 10° SE 23:27:13 20° E 23:28:14 18° ENE
NOSS 3-2 (C) 4.4 23:25:19 10° SSE 23:29:35 23° ESE 23:32:01 17° ENE
Meteor 2-10 Rocket 3.8 23:24:55 10° NNW 23:30:03 68° W 23:35:01 10° S
DELTA 2 R/B (1) 3.6 23:25:09 10° WNW 23:30:44 74° NNE 23:35:10 17° E
Fregat R/B Cluster 11 3.6 23:35:55 10° SSW 23:38:24 74° ESE 23:44:20 10° NNE
Cosmos 2227 4.2 23:32:55 10° S 23:38:37 70° ESE 23:44:19 10° NNE
SL-16 R/B 2.4 23:33:19 10° NNW 23:38:58 73° WSW 23:44:35 10° SSE
CENTAUR R/B 3.5 23:35:38 10° SSE 23:39:43 21° ESE 23:40:48 20° E
Ariane Rocket 3.9 23:37:56 10° SE 23:42:06 27° ENE 23:46:18 10° NNE
Cosmos 1624 Rocket 4.3 23:40:48 10° S 23:45:46 43° ESE 23:49:24 18° NE
NOSS 3-2 (A) 3.4 23:41:02 10° SSW 23:46:25 55° ESE 23:50:40 19° NE
Haruka 3.1 23:43:32 10° WSW 23:46:44 48° SSE 23:49:26 23° ESE
GPS 2-05 Rocket1 2.3 23:48:28 10° WSW 23:50:56 54° SSE 23:50:56 54° SSE
Cosmos 1437 3.4 23:48:13 10° SSE 23:50:23 34° SE 23:50:23 34° SE
Cosmos 2263 Rocket 2.1 23:46:04 10° S 23:51:33 68° ESE 23:56:24 14° NNE
Cosmos 1603 4.1 23:46:52 10° N 23:52:05 37° ENE 23:55:09 21° ESE
Shenzhou-11 Module 3.7 23:50:23 10° NW 23:51:57 19° N 23:51:57 19° N
CZ-4 R/B 2.0 23:49:19 10° S 23:53:18 59° W 23:57:25 10° NNW
